Time,TemperatureF,DewpointF,PressureIn,WindDirection,WindDirectionDegrees,WindSpeedMPH,WindSpeedGustMPH,Humidity,HourlyPrecipIn,Conditions,Clouds,dailyrainin,SoftwareType,DateUTC
2013-01-16 00:11:00,26.2,19.0,30.21,WNW,294,8.0,-999.0,74,-99.99,,,0.00,weatherlink.com 1.10,2013-01-16 06:11:00,
2013-01-16 00:26:00,26.3,19.0,30.21,WNW,296,11.0,-999.0,74,-99.99,,,0.00,weatherlink.com 1.10,2013-01-16 06:26:00,
2013-01-16 00:41:00,26.3,19.0,30.21,WNW,292,4.0,-999.0,73,-99.99,,,0.00,weatherlink.com 1.10,2013-01-16 06:41:00,
2013-01-16 00:56:00,26.7,19.0,30.20,WNW,293,8.0,-999.0,74,-99.99,,,0.00,weatherlink.com 1.10,2013-01-16 06:56:00,
2013-01-16 01:26:00,26.5,20.0,30.20,WNW,298,8.0,-999.0,76,-99.99,,,0.00,weatherlink.com 1.10,2013-01-16 07:26:00,
2013-01-16 01:41:00,26.4,20.0,30.20,WNW,302,7.0,-999.0,78,-99.99,,,0.00,weatherlink.com 1.10,2013-01-16 07:41:00,
2013-01-16 01:56:00,26.5,21.0,30.20,NW,305,5.0,-999.0,81,-99.99,,,0.00,weatherlink.com 1.10,2013-01-16 07:56:00,
2013-01-16 02:11:00,26.4,22.0,30.21,NW,305,0.0,-999.0,83,-99.99,,,0.00,weatherlink.com 1.10,2013-01-16 08:11:00,
2013-01-16 02:26:00,26.3,22.0,30.20,NW,305,7.0,-999.0,84,-99.99,,,0.00,weatherlink.com 1.10,2013-01-16 08:26:00,
2013-01-16 02:41:00,26.1,22.0,30.21,WNW,300,7.0,-999.0,84,-99.99,,,0.00,weatherlink.com 1.10,2013-01-16 08:41:00,
2013-01-16 02:56:00,26.0,22.0,30.20,WNW,295,5.0,-999.0,83,-99.99,,,0.00,weatherlink.com 1.10,2013-01-16 08:56:00,
2013-01-16 03:11:00,25.9,21.0,30.21,WNW,296,8.0,-999.0,83,-99.99,,,0.00,weatherlink.com 1.10,2013-01-16 09:11:00,
2013-01-16 03:26:00,25.6,21.0,30.21,WNW,296,5.0,-999.0,83,-99.99,,,0.00,weatherlink.com 1.10,2013-01-16 09:26:00,
2013-01-16 03:41:00,25.6,21.0,30.21,WNW,296,4.0,-999.0,83,-99.99,,,0.00,weatherlink.com 1.10,2013-01-16 09:41:00,
2013-01-16 03:56:00,25.2,21.0,30.21,WNW,297,1.0,-999.0,84,-99.99,,,0.00,weatherlink.com 1.10,2013-01-16 09:56:00,
2013-01-16 04:11:00,25.3,21.0,30.22,WNW,296,6.0,-999.0,84,-99.99,,,0.00,weatherlink.com 1.10,2013-01-16 10:11:00,
2013-01-16 04:26:00,25.2,21.0,30.21,WNW,290,4.0,-999.0,84,-99.99,,,0.00,weatherlink.com 1.10,2013-01-16 10:26:00,
2013-01-16 04:41:00,25.1,21.0,30.21,West,276,5.0,-999.0,84,-99.99,,,0.00,weatherlink.com 1.10,2013-01-16 10:41:00,
2013-01-16 04:56:00,25.1,21.0,30.21,West,271,6.0,-999.0,84,-99.99,,,0.00,weatherlink.com 1.10,2013-01-16 10:56:00,
2013-01-16 05:28:00,25.1,21.0,30.20,West,275,4.0,-999.0,84,-99.99,,,0.00,weatherlink.com 1.10,2013-01-16 11:28:00,
2013-01-16 05:41:00,25.0,21.0,30.20,West,277,2.0,-999.0,84,-99.99,,,0.00,weatherlink.com 1.10,2013-01-16 11:41:00,
2013-01-16 05:56:00,25.4,21.0,30.20,West,281,6.0,-999.0,82,-99.99,,,0.00,weatherlink.com 1.10,2013-01-16 11:56:00,
2013-01-16 06:11:00,25.6,20.0,30.20,WNW,290,7.0,-999.0,79,-99.99,,,0.00,weatherlink.com 1.10,2013-01-16 12:11:00,
2013-01-16 06:26:00,26.0,18.0,30.20,NNW,335,5.0,-999.0,72,-99.99,,,0.00,weatherlink.com 1.10,2013-01-16 12:26:00,
2013-01-16 06:41:00,25.8,18.0,30.20,NNW,333,9.0,-999.0,71,-99.99,,,0.00,weatherlink.com 1.10,2013-01-16 12:41:00,
2013-01-16 06:56:00,25.8,17.0,30.20,NNW,333,7.0,-999.0,70,-99.99,,,0.00,weatherlink.com 1.10,2013-01-16 12:56:00,
2013-01-16 07:11:00,26.0,16.0,30.21,NNW,331,2.0,-999.0,67,-99.99,,,0.00,weatherlink.com 1.10,2013-01-16 13:11:00,
2013-01-16 07:28:00,26.3,13.0,30.22,NNW,331,2.0,-999.0,58,-99.99,,,0.00,weatherlink.com 1.10,2013-01-16 13:28:00,
2013-01-16 07:41:00,26.7,13.0,30.23,NNW,331,0.0,-999.0,56,-99.99,,,0.00,weatherlink.com 1.10,2013-01-16 13:41:00,
2013-01-16 07:56:00,26.8,14.0,30.24,NNW,331,0.0,-999.0,59,-99.99,,,0.00,weatherlink.com 1.10,2013-01-16 13:56:00,
2013-01-16 08:11:00,26.9,15.0,30.24,NNW,331,0.0,-999.0,62,-99.99,,,0.00,weatherlink.com 1.10,2013-01-16 14:11:00,
2013-01-16 08:26:00,27.6,16.0,30.25,NNW,331,0.0,-999.0,61,-99.99,,,0.00,weatherlink.com 1.10,2013-01-16 14:26:00,
2013-01-16 08:41:00,28.1,16.0,30.26,NNW,331,0.0,-999.0,60,-99.99,,,0.00,weatherlink.com 1.10,2013-01-16 14:41:00,
2013-01-16 08:56:00,28.2,18.0,30.26,NNW,331,0.0,-999.0,67,-99.99,,,0.00,weatherlink.com 1.10,2013-01-16 14:56:00,
2013-01-16 09:11:00,27.7,19.0,30.26,NNW,331,0.0,-999.0,69,-99.99,,,0.00,weatherlink.com 1.10,2013-01-16 15:11:00,
2013-01-16 09:26:00,27.5,19.0,30.27,NNW,327,0.0,-999.0,71,-99.99,,,0.00,weatherlink.com 1.10,2013-01-16 15:26:00,
2013-01-16 09:41:00,27.5,19.0,30.27,NW,314,0.0,-999.0,71,-99.99,,,0.00,weatherlink.com 1.10,2013-01-16 15:41:00,
2013-01-16 09:56:00,27.5,20.0,30.26,West,271,0.0,-999.0,74,-99.99,,,0.00,weatherlink.com 1.10,2013-01-16 15:56:00,
2013-01-16 10:11:00,29.1,17.0,30.26,West,268,0.0,-999.0,62,-99.99,,,0.00,weatherlink.com 1.10,2013-01-16 16:11:00,
2013-01-16 10:26:00,30.7,16.0,30.25,West,268,0.0,-999.0,54,-99.99,,,0.00,weatherlink.com 1.10,2013-01-16 16:26:00,
2013-01-16 10:41:00,31.6,14.0,30.24,West,268,0.0,-999.0,48,-99.99,,,0.00,weatherlink.com 1.10,2013-01-16 16:41:00,
2013-01-16 10:56:00,32.5,15.0,30.24,West,268,1.0,-999.0,49,-99.99,,,0.01,weatherlink.com 1.10,2013-01-16 16:56:00,
2013-01-16 11:11:00,32.3,12.0,30.23,West,268,0.0,-999.0,44,-99.99,,,0.01,weatherlink.com 1.10,2013-01-16 17:11:00,
2013-01-16 11:26:00,32.9,15.0,30.22,West,267,0.0,-999.0,48,-99.99,,,0.01,weatherlink.com 1.10,2013-01-16 17:26:00,
2013-01-16 11:41:00,33.8,14.0,30.21,West,267,0.0,-999.0,45,-99.99,,,0.01,weatherlink.com 1.10,2013-01-16 17:41:00,
2013-01-16 11:56:00,34.3,15.0,30.21,West,270,0.0,-999.0,46,-99.99,,,0.01,weatherlink.com 1.10,2013-01-16 17:56:00,
2013-01-16 12:11:00,33.6,18.0,30.21,WSW,258,0.0,-999.0,52,-99.99,,,0.01,weatherlink.com 1.10,2013-01-16 18:11:00,
2013-01-16 12:26:00,34.1,17.0,30.20,West,262,1.0,-999.0,50,-99.99,,,0.01,weatherlink.com 1.10,2013-01-16 18:26:00,
2013-01-16 12:41:00,34.4,16.0,30.20,West,274,5.0,-999.0,48,-99.99,,,0.01,weatherlink.com 1.10,2013-01-16 18:41:00,
2013-01-16 12:56:00,35.3,12.0,30.19,West,269,0.0,-999.0,39,-99.99,,,0.01,weatherlink.com 1.10,2013-01-16 18:56:00,
2013-01-16 13:11:00,36.4,15.0,30.19,West,269,1.0,-999.0,42,-99.99,,,0.01,weatherlink.com 1.10,2013-01-16 19:11:00,
2013-01-16 13:26:00,36.8,13.0,30.19,West,267,0.0,-999.0,37,-99.99,,,0.01,weatherlink.com 1.10,2013-01-16 19:26:00,
2013-01-16 13:41:00,36.9,11.0,30.18,West,273,0.0,-999.0,34,-99.99,,,0.01,weatherlink.com 1.10,2013-01-16 19:41:00,
2013-01-16 13:56:00,37.3,12.0,30.18,West,273,0.0,-999.0,35,-99.99,,,0.01,weatherlink.com 1.10,2013-01-16 19:56:00,
2013-01-16 14:11:00,38.4,13.0,30.17,West,272,0.0,-999.0,36,-99.99,,,0.01,weatherlink.com 1.10,2013-01-16 20:11:00,
2013-01-16 14:26:00,38.9,14.0,30.17,West,273,0.0,-999.0,36,-99.99,,,0.01,weatherlink.com 1.10,2013-01-16 20:26:00,
2013-01-16 14:41:00,39.1,11.0,30.17,West,272,1.0,-999.0,32,-99.99,,,0.01,weatherlink.com 1.10,2013-01-16 20:41:00,
2013-01-16 14:56:00,38.8,12.0,30.16,West,270,1.0,-999.0,34,-99.99,,,0.01,weatherlink.com 1.10,2013-01-16 20:56:00,
2013-01-16 15:12:00,39.1,13.0,30.16,West,267,0.0,-999.0,35,-99.99,,,0.01,weatherlink.com 1.10,2013-01-16 21:12:00,
2013-01-16 15:26:00,38.9,15.0,30.16,West,267,0.0,-999.0,38,-99.99,,,0.01,weatherlink.com 1.10,2013-01-16 21:26:00,
2013-01-16 15:42:00,38.6,15.0,30.16,WNW,286,11.0,-999.0,38,-99.99,,,0.01,weatherlink.com 1.10,2013-01-16 21:42:00,
2013-01-16 15:56:00,38.0,14.0,30.17,WNW,286,0.0,-999.0,38,-99.99,,,0.01,weatherlink.com 1.10,2013-01-16 21:56:00,
2013-01-16 16:11:00,37.9,15.0,30.18,WNW,283,4.0,-999.0,40,-99.99,,,0.01,weatherlink.com 1.10,2013-01-16 22:11:00,
2013-01-16 16:27:00,37.9,17.0,30.18,West,279,0.0,-999.0,43,-99.99,,,0.01,weatherlink.com 1.10,2013-01-16 22:27:00,
2013-01-16 16:41:00,37.5,17.0,30.18,West,265,11.0,-999.0,43,-99.99,,,0.01,weatherlink.com 1.10,2013-01-16 22:41:00,
2013-01-16 16:56:00,37.1,18.0,30.18,West,261,4.0,-999.0,46,-99.99,,,0.01,weatherlink.com 1.10,2013-01-16 22:56:00,
2013-01-16 17:11:00,36.7,17.0,30.18,WSW,250,5.0,-999.0,44,-99.99,,,0.01,weatherlink.com 1.10,2013-01-16 23:11:00,
2013-01-16 17:26:00,36.0,16.0,30.18,WSW,250,2.0,-999.0,45,-99.99,,,0.01,weatherlink.com 1.10,2013-01-16 23:26:00,
2013-01-16 17:42:00,35.4,16.0,30.18,West,267,11.0,-999.0,45,-99.99,,,0.01,weatherlink.com 1.10,2013-01-16 23:42:00,
2013-01-16 17:57:00,35.4,16.0,30.20,WSW,257,8.0,-999.0,46,-99.99,,,0.01,weatherlink.com 1.10,2013-01-16 23:57:00,
2013-01-16 18:12:00,35.4,17.0,30.18,WSW,254,4.0,-999.0,47,-99.99,,,0.01,weatherlink.com 1.10,2013-01-17 00:12:00,
2013-01-16 18:26:00,35.2,18.0,30.19,West,266,8.0,-999.0,49,-99.99,,,0.01,weatherlink.com 1.10,2013-01-17 00:26:00,
2013-01-16 18:42:00,35.1,18.0,30.19,WSW,258,14.0,-999.0,49,-99.99,,,0.01,weatherlink.com 1.10,2013-01-17 00:42:00,
2013-01-16 18:57:00,35.1,18.0,30.19,West,265,8.0,-999.0,50,-99.99,,,0.01,weatherlink.com 1.10,2013-01-17 00:57:00,
2013-01-16 19:12:00,35.0,18.0,30.19,West,269,4.0,-999.0,50,-99.99,,,0.01,weatherlink.com 1.10,2013-01-17 01:12:00,
2013-01-16 19:27:00,34.8,18.0,30.20,West,278,14.0,-999.0,51,-99.99,,,0.01,weatherlink.com 1.10,2013-01-17 01:27:00,
2013-01-16 19:42:00,34.7,19.0,30.21,West,261,13.0,-999.0,52,-99.99,,,0.01,weatherlink.com 1.10,2013-01-17 01:42:00,
2013-01-16 19:57:00,34.8,19.0,30.21,West,276,12.0,-999.0,52,-99.99,,,0.01,weatherlink.com 1.10,2013-01-17 01:57:00,
2013-01-16 20:12:00,34.8,19.0,30.21,West,276,7.0,-999.0,53,-99.99,,,0.01,weatherlink.com 1.10,2013-01-17 02:12:00,
2013-01-16 20:27:00,34.6,19.0,30.21,WSW,252,4.0,-999.0,53,-99.99,,,0.01,weatherlink.com 1.10,2013-01-17 02:27:00,
2013-01-16 20:42:00,34.4,19.0,30.21,West,275,11.0,-999.0,53,-99.99,,,0.01,weatherlink.com 1.10,2013-01-17 02:42:00,
2013-01-16 20:57:00,34.4,19.0,30.21,WSW,257,11.0,-999.0,53,-99.99,,,0.01,weatherlink.com 1.10,2013-01-17 02:57:00,
2013-01-16 21:12:00,34.5,19.0,30.21,WNW,282,9.0,-999.0,53,-99.99,,,0.01,weatherlink.com 1.10,2013-01-17 03:12:00,
2013-01-16 21:27:00,34.5,19.0,30.21,WSW,256,14.0,-999.0,54,-99.99,,,0.01,weatherlink.com 1.10,2013-01-17 03:27:00,
2013-01-16 21:42:00,34.4,19.0,30.20,WNW,298,11.0,-999.0,54,-99.99,,,0.01,weatherlink.com 1.10,2013-01-17 03:42:00,
2013-01-16 21:57:00,34.3,19.0,30.21,West,271,6.0,-999.0,53,-99.99,,,0.01,weatherlink.com 1.10,2013-01-17 03:57:00,
2013-01-16 22:12:00,33.9,19.0,30.22,West,263,7.0,-999.0,54,-99.99,,,0.01,weatherlink.com 1.10,2013-01-17 04:12:00,
2013-01-16 22:27:00,33.9,18.0,30.21,WNW,286,7.0,-999.0,53,-99.99,,,0.01,weatherlink.com 1.10,2013-01-17 04:27:00,
2013-01-16 22:42:00,33.9,19.0,30.21,WNW,295,6.0,-999.0,54,-99.99,,,0.01,weatherlink.com 1.10,2013-01-17 04:42:00,
2013-01-16 22:57:00,33.7,18.0,30.21,West,274,13.0,-999.0,54,-99.99,,,0.01,weatherlink.com 1.10,2013-01-17 04:57:00,
2013-01-16 23:12:00,34.1,18.0,30.21,NW,306,11.0,-999.0,52,-99.99,,,0.01,weatherlink.com 1.10,2013-01-17 05:12:00,
2013-01-16 23:27:00,34.2,18.0,30.21,West,281,13.0,-999.0,51,-99.99,,,0.01,weatherlink.com 1.10,2013-01-17 05:27:00,
2013-01-16 23:42:00,34.3,18.0,30.21,West,279,12.0,-999.0,51,-99.99,,,0.01,weatherlink.com 1.10,2013-01-17 05:42:00,
2013-01-16 23:57:00,34.4,18.0,30.22,West,279,11.0,-999.0,51,-99.99,,,0.00,weatherlink.com 1.10,2013-01-17 05:57:00,